| time (UTC) | temp C | wind direction | speed KPH | gust KPH | rain 1hr cm | rain 24hr cm | rain mn cm | humidity % | barometer mb |
| 20260504232315 | 23 | 341 | 0.0 | 3.2 | 0.00 | 0.00 | 0.00 | 45 | 1011.8 |
| 20260504231815 | 24 | 341 | 0.0 | 3.2 | 0.00 | 0.00 | 0.00 | 44 | 1011.7 |
| 20260504231314 | 24 | 341 | 0.0 | 3.2 | 0.00 | 0.00 | 0.00 | 44 | 1011.8 |
| 20260504230836 | 24 | 341 | 0.0 | 1.6 | 0.00 | 0.00 | 0.00 | 44 | 1011.8 |
| 20260504230336 | 24 | 341 | 0.0 | 8.0 | 0.00 | 0.00 | 0.00 | 43 | 1011.8 |
| 20260504225835 | 24 | 341 | 1.6 | 9.7 | 0.00 | 0.00 | 0.00 | 43 | 1011.8 |
| 20260504225313 | 24 | 341 | 1.6 | 9.7 | 0.00 | 0.00 | 0.00 | 44 | 1011.9 |
| 20260504224811 | 24 | 341 | 1.6 | 9.7 | 0.00 | 0.00 | 0.00 | 43 | 1011.9 |
| 20260504224312 | 25 | 341 | 1.6 | 9.7 | 0.00 | 0.00 | 0.00 | 43 | 1011.9 |
| 20260504223836 | 25 | 341 | 1.6 | 9.7 | 0.00 | 0.00 | 0.00 | 42 | 1012.0 |
| 20260504223316 | 25 | 341 | 3.2 | 8.0 | 0.00 | 0.00 | 0.00 | 42 | 1012.0 |
| 20260504222814 | 25 | 341 | 1.6 | 11.3 | 0.00 | 0.00 | 0.00 | 42 | 1011.9 |
| 20260504222340 | 25 | 341 | 1.6 | 8.0 | 0.00 | 0.00 | 0.00 | 42 | 1011.9 |
| 20260504221813 | 25 | 341 | 1.6 | 8.0 | 0.00 | 0.00 | 0.00 | 44 | 1012.0 |
| 20260504221312 | 24 | 341 | 4.8 | 11.3 | 0.00 | 0.00 | 0.00 | 44 | 1011.9 |
| 20260504220839 | 23 | 341 | 4.8 | 11.3 | 0.00 | 0.00 | 0.00 | 44 | 1012.0 |
| 20260504220337 | 23 | 341 | 3.2 | 8.0 | 0.00 | 0.00 | 0.00 | 45 | 1012.1 |
| 20260504215837 | 23 | 341 | 1.6 | 8.0 | 0.00 | 0.00 | 0.00 | 43 | 1012.0 |
| 20260504215335 | 23 | 341 | 3.2 | 12.9 | 0.00 | 0.00 | 0.00 | 43 | 1012.1 |
| 20260504214812 | 23 | 341 | 4.8 | 11.3 | 0.00 | 0.00 | 0.00 | 42 | 1011.9 |
| 20260504214312 | 23 | 341 | 3.2 | 12.9 | 0.00 | 0.00 | 0.00 | 43 | 1011.9 |
| 20260504213812 | 23 | 341 | 6.4 | 11.3 | 0.00 | 0.00 | 0.00 | 43 | 1012.0 |
| 20260504213311 | 23 | 341 | 4.8 | 11.3 | 0.00 | 0.00 | 0.00 | 41 | 1011.9 |
| 20260504212853 | 23 | 341 | 4.8 | 16.1 | 0.00 | 0.00 | 0.00 | 41 | 1012.0 |
| 20260504212332 | 24 | 341 | 4.8 | 16.1 | 0.00 | 0.00 | 0.00 | 41 | 1011.8 |
| 20260504211831 | 24 | 341 | 6.4 | 16.1 | 0.00 | 0.00 | 0.00 | 42 | 1011.8 |
| 20260504211332 | 24 | 341 | 4.8 | 12.9 | 0.00 | 0.00 | 0.00 | 42 | 1011.8 |
| 20260504210858 | 23 | 341 | 6.4 | 16.1 | 0.00 | 0.00 | 0.00 | 41 | 1011.9 |
| 20260504210337 | 23 | 341 | 4.8 | 17.7 | 0.00 | 0.00 | 0.00 | 42 | 1011.8 |
| 20260504205815 | 23 | 341 | 6.4 | 14.5 | 0.00 | 0.00 | 0.00 | 42 | 1011.8 |
| 20260504205315 | 23 | 341 | 4.8 | 12.9 | 0.00 | 0.00 | 0.00 | 41 | 1011.7 |
| 20260504204813 | 23 | 341 | 6.4 | 17.7 | 0.00 | 0.00 | 0.00 | 41 | 1011.8 |
| 20260504204313 | 23 | 341 | 6.4 | 17.7 | 0.00 | 0.00 | 0.00 | 40 | 1011.8 |
| 20260504203813 | 24 | 341 | 3.2 | 14.5 | 0.00 | 0.00 | 0.00 | 40 | 1011.8 |
| 20260504203314 | 24 | 341 | 6.4 | 19.3 | 0.00 | 0.00 | 0.00 | 40 | 1011.9 |
| 20260504202837 | 24 | 341 | 4.8 | 19.3 | 0.00 | 0.00 | 0.00 | 39 | 1011.8 |
| 20260504202339 | 23 | 341 | 8.0 | 12.9 | 0.00 | 0.00 | 0.00 | 41 | 1011.8 |
| 20260504201838 | 23 | 341 | 4.8 | 11.3 | 0.00 | 0.00 | 0.00 | 38 | 1011.8 |
| 20260504201335 | 23 | 341 | 3.2 | 12.9 | 0.00 | 0.00 | 0.00 | 39 | 1012.0 |
| 20260504200813 | 23 | 341 | 4.8 | 16.1 | 0.00 | 0.00 | 0.00 | 39 | 1012.1 |
| 20260504200340 | 23 | 341 | 6.4 | 16.1 | 0.00 | 0.00 | 0.00 | 39 | 1012.2 |
| 20260504195818 | 23 | 341 | 4.8 | 12.9 | 0.00 | 0.00 | 0.00 | 38 | 1012.2 |
| 20260504195317 | 23 | 341 | 6.4 | 12.9 | 0.00 | 0.00 | 0.00 | 37 | 1012.2 |
| 20260504194816 | 23 | 341 | 3.2 | 17.7 | 0.00 | 0.00 | 0.00 | 39 | 1012.3 |
| 20260504194314 | 23 | 341 | 6.4 | 19.3 | 0.00 | 0.00 | 0.00 | 36 | 1012.4 |
| 20260504193814 | 24 | 341 | 8.0 | 19.3 | 0.00 | 0.00 | 0.00 | 36 | 1012.5 |
| 20260504193335 | 25 | 341 | 6.4 | 14.5 | 0.00 | 0.00 | 0.00 | 35 | 1012.4 |
| 20260504192834 | 25 | 341 | 4.8 | 14.5 | 0.00 | 0.00 | 0.00 | 34 | 1012.4 |
| 20260504192318 | 25 | 341 | 4.8 | 14.5 | 0.00 | 0.00 | 0.00 | 37 | 1012.5 |
| 20260504191818 | 25 | 341 | 6.4 | 12.9 | 0.00 | 0.00 | 0.00 | 36 | 1012.5 |
| 20260504191316 | 25 | 341 | 4.8 | 17.7 | 0.00 | 0.00 | 0.00 | 37 | 1012.6 |
| 20260504190816 | 25 | 341 | 8.0 | 17.7 | 0.00 | 0.00 | 0.00 | 34 | 1012.7 |
| 20260504190319 | 25 | 341 | 6.4 | 17.7 | 0.00 | 0.00 | 0.00 | 35 | 1012.9 |
| 20260504185817 | 25 | 341 | 8.0 | 17.7 | 0.00 | 0.00 | 0.00 | 35 | 1013.0 |
| 20260504185321 | 25 | 341 | 4.8 | 12.9 | 0.00 | 0.00 | 0.00 | 37 | 1012.9 |
| 20260504184841 | 24 | 341 | 4.8 | 17.7 | 0.00 | 0.00 | 0.00 | 36 | 1013.1 |
| 20260504184319 | 24 | 341 | 9.7 | 19.3 | 0.00 | 0.00 | 0.00 | 35 | 1013.0 |
| 20260504183845 | 24 | 341 | 9.7 | 19.3 | 0.00 | 0.00 | 0.00 | 36 | 1013.0 |
| 20260504183321 | 24 | 341 | 6.4 | 16.1 | 0.00 | 0.00 | 0.00 | 36 | 1013.2 |
| 20260504182820 | 24 | 341 | 3.2 | 16.1 | 0.00 | 0.00 | 0.00 | 36 | 1013.2 |
| 20260504182320 | 24 | 341 | 6.4 | 19.3 | 0.00 | 0.00 | 0.00 | 37 | 1013.2 |
| 20260504181819 | 24 | 341 | 6.4 | 19.3 | 0.00 | 0.00 | 0.00 | 36 | 1013.1 |
| 20260504181319 | 24 | 341 | 4.8 | 11.3 | 0.00 | 0.00 | 0.00 | 36 | 1013.2 |
| 20260504180817 | 24 | 341 | 3.2 | 16.1 | 0.00 | 0.00 | 0.00 | 36 | 1013.2 |
| 20260504180316 | 23 | 341 | 4.8 | 16.1 | 0.00 | 0.00 | 0.00 | 36 | 1013.3 |
| 20260504175816 | 23 | 341 | 8.0 | 14.5 | 0.00 | 0.00 | 0.00 | 37 | 1013.5 |
| 20260504175337 | 23 | 341 | 6.4 | 16.1 | 0.00 | 0.00 | 0.00 | 37 | 1013.6 |
| 20260504174835 | 23 | 341 | 6.4 | 17.7 | 0.00 | 0.00 | 0.00 | 38 | 1013.5 |
| 20260504174334 | 23 | 341 | 6.4 | 17.7 | 0.00 | 0.00 | 0.00 | 37 | 1013.5 |
| 20260504173831 | 23 | 341 | 3.2 | 11.3 | 0.00 | 0.00 | 0.00 | 38 | 1013.5 |
| 20260504173311 | 23 | 341 | 3.2 | 14.5 | 0.00 | 0.00 | 0.00 | 39 | 1013.7 |
| 20260504172837 | 23 | 341 | 8.0 | 16.1 | 0.00 | 0.00 | 0.00 | 37 | 1013.8 |
| 20260504172336 | 22 | 341 | 3.2 | 16.1 | 0.00 | 0.00 | 0.00 | 39 | 1013.8 |
| 20260504171816 | 23 | 341 | 3.2 | 11.3 | 0.00 | 0.00 | 0.00 | 40 | 1013.9 |
| 20260504171315 | 22 | 341 | 1.6 | 14.5 | 0.00 | 0.00 | 0.00 | 40 | 1014.0 |
| 20260504170821 | 22 | 341 | 6.4 | 14.5 | 0.00 | 0.00 | 0.00 | 38 | 1014.2 |
| 20260504170321 | 22 | 341 | 4.8 | 14.5 | 0.00 | 0.00 | 0.00 | 40 | 1014.3 |
| 20260504160316 | 20 | 341 | 3.2 | 9.7 | 0.00 | 0.00 | 0.00 | 45 | 1015.2 |
| 20260504150812 | 18 | 341 | 4.8 | 12.9 | 0.00 | 0.00 | 0.00 | 46 | 1015.4 |
| 20260504150312 | 18 | 341 | 3.2 | 14.5 | 0.00 | 0.00 | 0.00 | 45 | 1015.4 |
| 20260504141312 | 17 | 341 | 4.8 | 11.3 | 0.00 | 0.00 | 0.00 | 53 | 1015.6 |
| 20260504140832 | 17 | 341 | 1.6 | 9.7 | 0.00 | 0.00 | 0.00 | 54 | 1015.5 |
| 20260504140331 | 16 | 341 | 1.6 | 9.7 | 0.00 | 0.00 | 0.00 | 53 | 1015.5 |
| 20260504130813 | 13 | 341 | 1.6 | 8.0 | 0.00 | 0.00 | 0.00 | 63 | 1015.9 |
| 20260504130313 | 12 | 341 | 3.2 | 6.4 | 0.00 | 0.00 | 0.00 | 66 | 1015.9 |
| 20260504110330 | 9 | 341 | 1.6 | 9.7 | 0.00 | 0.00 | 0.00 | 66 | 1015.7 |
| 20260504100325 | 8 | 341 | 0.0 | 3.2 | 0.00 | 0.00 | 0.00 | 67 | 1015.5 |
| 20260504081819 | 8 | 341 | 1.6 | 3.2 | 0.00 | 0.00 | 0.00 | 70 | 1016.3 |
| 20260504081325 | 8 | 341 | 0.0 | 3.2 | 0.00 | 0.00 | 0.00 | 69 | 1016.3 |
| 20260504080823 | 8 | 341 | 0.0 | 3.2 | 0.00 | 0.00 | 0.00 | 69 | 1016.1 |
| 20260504080322 | 8 | 341 | 0.0 | 4.8 | 0.00 | 0.00 | 0.00 | 69 | 1016.2 |
| 20260504070345 | 9 | 341 | 1.6 | 4.8 | 0.00 | 0.00 | 0.00 | 65 | 1016.0 |
| 20260504050337 | 8 | 341 | 0.0 | 1.6 | 0.00 | 0.00 | 0.00 | 65 | 1016.1 |
| 20260504045815 | 8 | 341 | 0.0 | 1.6 | 0.00 | 0.00 | 0.00 | 65 | 1016.0 |
| 20260504045313 | 8 | 341 | 0.0 | 1.6 | 0.00 | 0.00 | 0.00 | 64 | 1015.9 |
| 20260504044813 | 8 | 341 | 0.0 | 1.6 | 0.00 | 0.00 | 0.00 | 64 | 1015.8 |
| 20260504044311 | 8 | 341 | 0.0 | 1.6 | 0.00 | 0.00 | 0.00 | 64 | 1015.8 |
| 20260504043812 | 8 | 341 | 0.0 | 3.2 | 0.00 | 0.00 | 0.00 | 64 | 1015.9 |
| 20260504043339 | 8 | 341 | 0.0 | 3.2 | 0.00 | 0.00 | 0.00 | 63 | 1015.9 |
| 20260504042838 | 8 | 341 | 0.0 | 1.6 | 0.00 | 0.00 | 0.00 | 64 | 1016.0 |
| 20260504042338 | 8 | 341 | 0.0 | 1.6 | 0.00 | 0.00 | 0.00 | 64 | 1016.0 |
| 20260504041837 | 8 | 341 | 0.0 | 1.6 | 0.00 | 0.00 | 0.00 | 64 | 1016.0 |
| 20260504041335 | 8 | 341 | 0.0 | 0.0 | 0.00 | 0.00 | 0.00 | 64 | 1016.0 |
| 20260504040833 | 8 | 341 | 0.0 | 1.6 | 0.00 | 0.00 | 0.00 | 64 | 1016.0 |
| 20260504040335 | 8 | 341 | 0.0 | 1.6 | 0.00 | 0.00 | 0.00 | 64 | 1016.1 |
| 20260504035829 | 8 | 341 | 0.0 | 1.6 | 0.00 | 0.00 | 0.00 | 63 | 1016.0 |
| 20260504035330 | 8 | 341 | 0.0 | 1.6 | 0.00 | 0.00 | 0.00 | 65 | 1016.1 |
| 20260504034830 | 8 | 341 | 0.0 | 1.6 | 0.00 | 0.00 | 0.00 | 63 | 1016.0 |
| 20260504034330 | 8 | 341 | 0.0 | 1.6 | 0.00 | 0.00 | 0.00 | 63 | 1015.9 |
| 20260504033832 | 8 | 341 | 0.0 | 1.6 | 0.00 | 0.00 | 0.00 | 63 | 1016.0 |
| 20260504033333 | 8 | 341 | 0.0 | 1.6 | 0.00 | 0.00 | 0.00 | 64 | 1016.0 |
| 20260504032832 | 8 | 341 | 0.0 | 1.6 | 0.00 | 0.00 | 0.00 | 64 | 1016.0 |
| 20260504032312 | 8 | 341 | 0.0 | 1.6 | 0.00 | 0.00 | 0.00 | 63 | 1015.9 |
| 20260504031838 | 8 | 341 | 0.0 | 1.6 | 0.00 | 0.00 | 0.00 | 64 | 1016.0 |
| 20260504031341 | 8 | 341 | 0.0 | 0.0 | 0.00 | 0.00 | 0.00 | 64 | 1016.1 |
| 20260504030820 | 8 | 341 | 0.0 | 1.6 | 0.00 | 0.00 | 0.00 | 64 | 1016.1 |
| 20260504030346 | 8 | 341 | 0.0 | 1.6 | 0.00 | 0.00 | 0.00 | 63 | 1016.0 |
| 20260504025824 | 8 | 341 | 0.0 | 1.6 | 0.00 | 0.00 | 0.00 | 65 | 1016.0 |
| 20260504025323 | 8 | 341 | 0.0 | 1.6 | 0.00 | 0.00 | 0.00 | 67 | 1016.0 |
| 20260504024823 | 7 | 341 | 0.0 | 1.6 | 0.00 | 0.00 | 0.00 | 70 | 1015.9 |
| 20260504024352 | 7 | 341 | 0.0 | 0.0 | 0.00 | 0.00 | 0.00 | 71 | 1016.0 |
| 20260504023828 | 7 | 341 | 0.0 | 0.0 | 0.00 | 0.00 | 0.00 | 74 | 1015.9 |
| 20260504023355 | 7 | 341 | 0.0 | 0.0 | 0.00 | 0.00 | 0.00 | 74 | 1016.0 |
| 20260504022833 | 8 | 341 | 0.0 | 0.0 | 0.00 | 0.00 | 0.00 | 72 | 1016.0 |
| 20260504022332 | 8 | 341 | 0.0 | 0.0 | 0.00 | 0.00 | 0.00 | 71 | 1016.1 |
| 20260504021832 | 8 | 341 | 0.0 | 0.0 | 0.00 | 0.00 | 0.00 | 72 | 1016.2 |
| 20260504021332 | 7 | 341 | 0.0 | 0.0 | 0.00 | 0.00 | 0.00 | 72 | 1016.2 |
| 20260504020831 | 7 | 341 | 0.0 | 0.0 | 0.00 | 0.00 | 0.00 | 73 | 1016.0 |
| 20260504020330 | 7 | 341 | 0.0 | 0.0 | 0.00 | 0.00 | 0.00 | 74 | 1016.0 |
| 20260504015827 | 7 | 341 | 0.0 | 0.0 | 0.00 | 0.00 | 0.00 | 75 | 1015.9 |
| 20260504015325 | 7 | 341 | 0.0 | 0.0 | 0.00 | 0.00 | 0.00 | 77 | 1015.9 |
| 20260504014826 | 7 | 341 | 0.0 | 0.0 | 0.00 | 0.00 | 0.00 | 78 | 1015.8 |
| 20260504014324 | 7 | 341 | 0.0 | 0.0 | 0.00 | 0.00 | 0.00 | 76 | 1015.8 |
| 20260504013851 | 7 | 341 | 0.0 | 0.0 | 0.00 | 0.00 | 0.00 | 77 | 1015.8 |
| 20260504013352 | 7 | 341 | 0.0 | 0.0 | 0.00 | 0.00 | 0.00 | 75 | 1015.7 |
| 20260504012830 | 7 | 341 | 0.0 | 0.0 | 0.00 | 0.00 | 0.00 | 73 | 1015.6 |
| 20260504012330 | 7 | 341 | 0.0 | 0.0 | 0.00 | 0.00 | 0.00 | 74 | 1015.6 |
| 20260504011829 | 8 | 341 | 0.0 | 0.0 | 0.00 | 0.00 | 0.00 | 74 | 1015.5 |
| 20260504011330 | 8 | 341 | 0.0 | 0.0 | 0.00 | 0.00 | 0.00 | 72 | 1015.5 |
| 20260504010830 | 8 | 341 | 0.0 | 0.0 | 0.00 | 0.00 | 0.00 | 70 | 1015.5 |
| 20260504010330 | 9 | 341 | 0.0 | 0.0 | 0.00 | 0.00 | 0.00 | 67 | 1015.4 |
| 20260504005829 | 9 | 341 | 0.0 | 0.0 | 0.00 | 0.00 | 0.00 | 66 | 1015.3 |
| 20260504005329 | 9 | 341 | 0.0 | 0.0 | 0.00 | 0.00 | 0.00 | 64 | 1015.4 |
| 20260504004855 | 10 | 341 | 0.0 | 0.0 | 0.00 | 0.00 | 0.00 | 63 | 1015.4 |
| 20260504004333 | 10 | 341 | 0.0 | 0.0 | 0.00 | 0.00 | 0.00 | 62 | 1015.4 |
| 20260504003834 | 10 | 341 | 0.0 | 0.0 | 0.00 | 0.00 | 0.00 | 60 | 1015.4 |
| 20260504003333 | 11 | 341 | 0.0 | 0.0 | 0.00 | 0.00 | 0.00 | 59 | 1015.4 |
| 20260504002833 | 11 | 341 | 0.0 | 0.0 | 0.00 | 0.00 | 0.00 | 58 | 1015.3 |
| 20260504002332 | 12 | 341 | 0.0 | 0.0 | 0.00 | 0.00 | 0.00 | 58 | 1015.3 |
| 20260504001813 | 12 | 341 | 0.0 | 0.0 | 0.00 | 0.00 | 0.00 | 55 | 1015.3 |
| 20260504001316 | 13 | 341 | 0.0 | 3.2 | 0.00 | 0.00 | 0.00 | 53 | 1015.4 |
| 20260504000816 | 13 | 341 | 0.0 | 3.2 | 0.00 | 0.00 | 0.00 | 53 | 1015.2 |
| 20260504000316 | 14 | 341 | 0.0 | 0.0 | 0.00 | 0.00 | 0.00 | 51 | 1015.2 |
| 20260503235816 | 15 | 341 | 0.0 | 0.0 | 0.00 | 0.00 | 0.00 | 48 | 1015.1 |
| 20260503235316 | 16 | 341 | 0.0 | 0.0 | 0.00 | 0.00 | 0.00 | 46 | 1015.1 |
| 20260503234816 | 16 | 341 | 0.0 | 1.6 | 0.00 | 0.00 | 0.00 | 44 | 1015.1 |
| 20260503234315 | 17 | 341 | 0.0 | 1.6 | 0.00 | 0.00 | 0.00 | 39 | 1015.1 |
| 20260503233814 | 18 | 341 | 0.0 | 1.6 | 0.00 | 0.00 | 0.00 | 38 | 1015.0 |
| 20260503233356 | 18 | 341 | 0.0 | 1.6 | 0.00 | 0.00 | 0.00 | 38 | 1015.0 |
| 20260503232835 | 18 | 341 | 0.0 | 6.4 | 0.00 | 0.00 | 0.00 | 37 | 1014.9 |